Total_Precipitation_Accumulation
0.00 0.01 0.02 0.02 0.02 0.03 0.05 0.09 0.18 0.27 0.23 0.33 0.43 0.51 0.66 0.82 1.04 1.09 1.16 1.26 1.51 1.81 2.21 2.93 3.57 4.13 4.82 5.59 6.17 6.07 5.46 5.00 4.51 4.09 3.60 3.54 3.35 3.08 2.85 2.61 2.39 2.32 2.18 1.98
0.01 0.03 0.03 0.03 0.03 0.04 0.06 0.10 0.17 0.22 0.19 0.21 0.36 0.61 0.76 0.84 1.02 0.98 0.97 1.03 1.23 1.59 2.21 2.96 3.55 3.78 3.82 4.09 4.34 3.84 3.64 3.66 3.37 3.21 3.21 3.13 2.96 2.66 2.43 2.29 2.35 2.02 1.97 1.92
0.02 0.04 0.03 0.03 0.03 0.05 0.09 0.11 0.13 0.20 0.22 0.28 0.43 0.80 1.01 0.93 0.95 0.82 0.80 1.02 1.49 1.91 2.33 2.83 3.01 3.02 2.93 2.89 2.87 2.64 2.59 2.91 2.94 3.02 3.08 3.07 3.03 2.85 2.58 2.27 2.26 1.93 1.76 1.80
0.01 0.03 0.03 0.05 0.05 0.05 0.08 0.07 0.06 0.09 0.17 0.41 0.58 1.03 1.24 1.16 1.10 0.82 0.88 1.27 1.77 2.08 2.32 2.29 1.88 1.74 1.90 1.99 2.11 2.37 2.46 2.59 2.55 2.71 2.68 2.59 2.37 2.22 2.09 2.01 2.08 2.10 1.90 1.78
0.03 0.03 0.04 0.05 0.05 0.04 0.05 0.05 0.04 0.08 0.18 0.44 0.73 1.16 1.43 1.32 1.09 0.86 0.83 0.89 1.28 1.42 1.37 1.22 1.09 1.12 1.36 1.64 1.91 2.27 2.36 2.40 2.33 2.32 2.44 2.60 2.50 2.48 2.32 2.19 2.38 2.38 2.35 2.09
0.04 0.04 0.04 0.04 0.03 0.04 0.05 0.06 0.13 0.22 0.41 0.88 0.95 1.05 1.35 1.25 1.04 0.91 0.78 0.69 0.89 0.92 0.75 0.78 0.89 1.09 1.33 1.49 1.66 1.92 2.04 2.20 2.23 2.28 2.39 2.42 2.45 2.58 2.50 2.37 2.25 2.16 2.20 2.13
0.09 0.09 0.06 0.04 0.04 0.04 0.04 0.07 0.28 0.63 0.94 1.08 0.82 0.97 1.29 0.97 0.77 0.65 0.54 0.47 0.48 0.56 0.64 0.79 0.88 1.08 1.17 1.28 1.33 1.51 1.57 1.76 1.94 2.06 2.14 2.22 2.34 2.45 2.40 2.39 2.28 2.18 2.02 1.94
0.15 0.14 0.09 0.04 0.05 0.05 0.05 0.05 0.13 0.25 0.38 0.60 0.77 1.18 1.28 0.90 0.59 0.45 0.41 0.41 0.40 0.47 0.55 0.61 0.73 0.81 0.86 1.02 1.24 1.41 1.40 1.42 1.49 1.57 1.74 1.91 1.97 2.08 2.12 2.36 2.23 2.13 2.04 1.97
0.05 0.04 0.05 0.04 0.05 0.04 0.05 0.04 0.05 0.08 0.11 0.37 0.81 1.11 1.07 0.74 0.57 0.51 0.50 0.51 0.52 0.52 0.62 0.60 0.61 0.77 0.82 0.79 0.91 1.12 1.18 1.21 1.26 1.32 1.45 1.53 1.57 1.73 1.95 1.99 1.83 1.67 1.76 1.89
0.03 0.02 0.03 0.03 0.04 0.04 0.05 0.05 0.05 0.07 0.13 0.28 0.66 1.17 1.42 1.12 0.81 0.63 0.68 0.60 0.54 0.48 0.54 0.64 0.65 0.71 0.77 0.75 0.89 1.02 1.13 1.20 1.22 1.23 1.28 1.23 1.38 1.50 1.67 1.73 1.71 1.62 1.55 1.69
0.02 0.02 0.03 0.03 0.05 0.06 0.06 0.06 0.07 0.09 0.10 0.19 0.49 0.80 0.86 0.95 0.80 0.60 0.64 0.60 0.54 0.47 0.49 0.61 0.63 0.67 0.67 0.66 0.78 0.92 1.07 1.15 1.09 1.13 1.18 1.26 1.35 1.53 1.59 1.56 1.60 1.62 1.63 1.72
0.02 0.02 0.02 0.04 0.07 0.07 0.08 0.09 0.10 0.11 0.13 0.14 0.25 0.44 0.49 0.54 0.65 0.85 0.81 0.68 0.66 0.62 0.54 0.59 0.62 0.64 0.57 0.59 0.69 0.81 0.99 1.12 1.16 1.14 1.22 1.32 1.40 1.48 1.56 1.50 1.58 1.74 1.78 1.83
0.03 0.03 0.04 0.12 0.17 0.15 0.12 0.11 0.11 0.11 0.12 0.12 0.24 0.44 0.46 0.44 0.46 0.60 0.73 0.81 0.71 0.59 0.58 0.60 0.70 0.66 0.59 0.60 0.65 0.80 1.07 1.28 1.44 1.47 1.43 1.41 1.36 1.42 1.54 1.61 1.67 1.78 1.90 1.97
0.03 0.04 0.04 0.10 0.18 0.22 0.21 0.17 0.14 0.11 0.10 0.10 0.16 0.34 0.40 0.52 0.59 0.57 0.69 0.84 0.70 0.54 0.55 0.65 0.75 0.80 0.85 0.85 0.86 1.00 1.18 1.25 1.36 1.34 1.31 1.38 1.41 1.53 1.68 1.74 1.81 1.88 1.91 1.97
0.03 0.03 0.03 0.03 0.06 0.13 0.21 0.20 0.14 0.10 0.08 0.10 0.12 0.21 0.36 0.55 0.69 0.76 0.79 0.84 0.72 0.63 0.67 0.72 0.80 0.87 0.94 1.02 1.01 1.00 1.09 1.11 1.24 1.53 1.64 1.76 1.77 1.81 1.93 2.01 1.98 2.02 2.03 2.01
0.06 0.05 0.04 0.04 0.06 0.09 0.13 0.17 0.13 0.10 0.10 0.11 0.14 0.24 0.38 0.59 0.67 0.76 0.74 0.76 0.72 0.75 0.77 0.85 0.90 0.93 0.97 1.04 1.15 1.18 1.19 1.22 1.42 1.83 2.09 2.19 2.24 2.29 2.34 2.39 2.39 2.40 2.36 2.46
0.12 0.11 0.09 0.06 0.08 0.11 0.16 0.15 0.14 0.13 0.13 0.17 0.22 0.32 0.42 0.57 0.75 0.86 0.76 0.64 0.65 0.68 0.73 0.81 0.96 1.08 1.08 1.12 1.21 1.30 1.36 1.42 1.57 1.85 2.05 2.15 2.26 2.38 2.54 2.58 2.61 2.61 2.63 2.63
0.20 0.21 0.18 0.12 0.14 0.21 0.21 0.22 0.24 0.23 0.24 0.27 0.38 0.50 0.54 0.59 0.69 0.73 0.63 0.61 0.65 0.68 0.79 0.90 0.95 1.10 1.20 1.29 1.42 1.64 1.82 1.94 1.98 2.09 2.26 2.37 2.35 2.38 2.46 2.47 2.42 2.45 2.58 2.60
0.25 0.29 0.27 0.24 0.24 0.24 0.27 0.33 0.34 0.35 0.46 0.52 0.64 0.76 0.82 0.80 0.78 0.87 0.80 0.74 0.74 0.84 0.94 1.12 1.26 1.30 1.40 1.51 1.63 1.79 2.06 2.19 2.23 2.21 2.37 2.51 2.60 2.67 2.57 2.46 2.49 2.54 2.59 2.47
0.30 0.35 0.41 0.36 0.41 0.44 0.40 0.45 0.43 0.48 0.84 0.79 0.85 0.96 1.02 1.09 1.32 1.31 1.04 1.01 0.91 0.89 1.01 1.12 1.32 1.46 1.51 1.68 1.77 1.84 1.97 2.09 2.19 2.19 2.26 2.42 2.52 2.69 2.79 2.72 2.73 2.69 2.62 2.51
0.46 0.49 0.46 0.47 0.53 0.54 0.49 0.47 0.53 0.96 1.34 1.13 1.08 1.13 1.21 1.33 1.36 1.25 1.10 1.14 1.17 1.03 1.01 1.05 1.13 1.29 1.39 1.50 1.60 1.76 1.87 1.89 1.99 2.03 2.02 2.17 2.39 2.57 2.69 2.81 2.82 2.84 2.75 2.64
0.71 0.74 0.69 0.66 0.84 0.95 0.66 0.59 0.89 1.20 1.19 1.32 1.24 1.23 1.33 1.38 1.40 1.38 1.33 1.27 1.20 1.13 1.05 1.08 1.15 1.23 1.32 1.46 1.70 1.90 1.95 1.93 1.93 2.00 2.10 2.22 2.41 2.51 2.52 2.58 2.66 2.79 2.77 2.71
0.96 1.02 1.02 1.03 1.18 1.07 0.78 0.83 0.94 0.97 1.15 1.25 1.28 1.29 1.34 1.36 1.34 1.27 1.20 1.19 1.23 1.17 1.16 1.13 1.17 1.31 1.50 1.68 1.88 2.10 2.13 2.14 2.16 2.19 2.28 2.34 2.42 2.50 2.54 2.54 2.54 2.56 2.54 2.44
1.04 0.90 1.09 1.34 1.49 1.27 1.07 1.00 1.04 1.13 1.26 1.36 1.47 1.54 1.44 1.33 1.24 1.26 1.26 1.23 1.29 1.28 1.23 1.21 1.21 1.30 1.49 1.60 1.71 1.91 2.05 2.09 2.24 2.22 2.14 2.11 2.14 2.19 2.26 2.33 2.34 2.34 2.30 2.25
1.13 1.14 1.32 1.70 1.92 1.79 1.57 1.35 1.28 1.35 1.61 1.78 1.77 1.69 1.61 1.57 1.51 1.56 1.53 1.41 1.33 1.30 1.31 1.31 1.34 1.39 1.44 1.48 1.53 1.63 1.77 1.92 2.13 2.22 2.18 2.17 2.17 2.18 2.21 2.27 2.33 2.20 2.13 2.16
1.08 1.37 1.70 2.03 1.98 2.07 1.95 1.59 1.53 1.55 1.71 1.84 1.78 1.79 1.84 1.82 1.73 1.59 1.52 1.46 1.42 1.37 1.37 1.41 1.46 1.49 1.47 1.46 1.55 1.66 1.80 2.01 2.23 2.25 2.15 2.16 2.23 2.28 2.30 2.31 2.34 2.39 2.18 2.13